Date,TemperatureHighF,TemperatureAvgF,TemperatureLowF,DewpointHighF,DewpointAvgF,DewpointLowF,HumidityHigh,HumidityAvg,HumidityLow,PressureMaxIn,PressureMinIn,WindSpeedMaxMPH,WindSpeedAvgMPH,GustSpeedMaxMPH,PrecipitationSumIn
2013-1-4,79.2,74.4,71.6,65.0,62.4,58.5,73,66,60,29.85,29.71,12,6,17,0.00
2013-1-5,86.0,78.4,71.8,62.5,60.9,59.5,68,56,43,29.83,29.66,17,9,27,0.02
2013-1-6,87.4,79.4,70.7,63.0,60.4,58.5,70,53,41,29.80,29.62,14,8,25,0.00
2013-1-7,87.4,80.9,70.9,63.3,61.0,58.3,69,52,41,29.79,29.59,17,9,23,0.00
2013-1-8,88.2,81.5,71.2,65.0,60.5,57.5,72,50,38,29.72,29.56,14,7,23,0.00
2013-1-9,90.5,81.9,72.9,65.5,62.9,59.5,72,54,38,29.80,29.60,12,7,21,0.00
2013-1-10,86.5,80.0,71.4,64.8,62.3,60.1,75,56,44,29.80,29.65,15,10,27,0.00
2013-1-11,88.3,83.5,73.4,63.3,61.6,59.2,68,48,42,29.77,29.58,17,10,26,0.00
2013-1-13,88.5,79.4,71.1,62.3,59.4,55.5,69,52,37,29.80,29.62,14,7,21,0.00
2013-1-14,88.0,79.6,69.4,63.9,61.8,60.2,74,56,40,29.82,29.63,14,7,20,0.00
2013-1-15,89.8,80.9,73.0,70.2,62.7,56.7,80,56,38,29.81,29.60,14,6,20,0.00
2013-1-16,89.8,81.1,72.9,69.2,62.1,56.3,73,54,37,29.80,29.63,12,5,21,0.00
2013-1-17,85.5,77.6,70.9,63.6,61.8,60.2,70,59,47,29.86,29.68,14,8,25,0.00
2013-1-18,83.8,77.5,70.0,64.9,61.5,57.9,75,59,46,29.89,29.70,18,11,34,0.00
2013-1-19,82.9,75.5,68.7,62.2,60.7,58.7,76,61,46,29.85,29.69,18,10,30,0.01
2013-1-20,84.0,78.6,71.1,64.1,61.7,58.9,69,57,48,29.82,29.65,17,9,24,0.00
2013-1-21,87.3,78.8,69.3,62.4,59.7,55.8,70,53,41,29.83,29.65,16,8,27,0.00
2013-1-22,86.9,77.9,70.0,64.7,62.0,60.1,74,59,43,29.85,29.68,15,9,24,0.00
2013-1-23,86.0,80.6,72.0,63.4,59.9,57.0,68,50,40,29.89,29.74,17,9,24,0.01
2013-1-24,88.2,80.4,72.1,63.5,60.6,57.5,71,52,39,29.90,29.71,16,8,24,0.00
2013-1-25,84.2,78.5,71.4,64.1,63.2,62.1,74,60,49,29.88,29.73,15,8,25,0.00
2013-1-27,86.4,80.6,71.2,62.5,60.2,57.0,66,51,42,29.86,29.71,18,9,24,0.00
2013-1-28,88.5,81.7,69.8,65.3,59.5,57.7,74,48,38,29.89,29.71,14,8,23,0.00
2013-1-29,86.2,79.0,71.1,65.8,64.1,61.5,76,61,49,29.86,29.70,16,8,23,0.00
2013-1-30,90.0,80.9,71.1,65.5,63.4,61.7,77,57,41,29.82,29.61,14,7,22,0.00
2013-1-31,87.4,79.4,70.5,64.8,62.5,60.2,79,58,43,29.83,29.65,15,9,25,0.00
2013-2-1,86.5,77.8,70.3,62.7,60.1,56.7,67,55,43,29.86,29.70,17,10,27,0.00
2013-2-2,83.1,77.7,70.0,61.7,57.3,52.0,64,50,43,29.87,29.70,15,9,25,0.00
2013-2-3,84.9,79.9,72.0,62.3,59.9,56.6,65,51,42,29.84,29.68,17,9,22,0.00
2013-2-4,89.6,83.6,72.3,63.4,59.2,54.1,71,45,38,29.82,29.60,11,7,20,0.00
2013-2-5,90.5,83.4,70.0,62.9,60.4,57.0,65,47,37,29.83,29.63,12,6,17,0.00
2013-2-6,88.5,79.0,70.5,63.4,59.9,52.8,72,54,38,29.85,29.66,14,7,22,0.00
2013-2-7,89.6,76.2,68.0,61.2,58.2,54.5,72,56,33,29.84,29.63,13,7,20,0.00
2013-2-8,89.2,80.0,69.8,61.3,59.7,57.5,71,52,38,29.85,29.66,12,8,23,0.00
2013-2-9,87.4,74.3,67.5,61.4,58.4,56.0,73,59,35,29.85,29.69,17,9,28,0.00
2013-2-10,82.2,76.5,72.7,61.2,58.8,56.8,67,55,43,29.87,29.75,12,8,21,0.00
2013-2-11,89.4,81.1,67.8,61.0,55.6,48.6,64,43,31,29.89,29.67,13,7,20,0.00
2013-2-12,86.0,77.6,71.4,62.9,59.8,52.8,72,55,42,29.84,29.71,14,7,21,0.00
2013-2-13,90.9,80.6,71.4,69.0,63.5,59.7,83,58,38,29.82,29.61,9,4,14,0.00
2013-2-14,87.8,77.4,67.5,65.5,63.7,61.7,86,65,42,29.84,29.67,10,5,14,0.00
2013-2-15,91.8,81.4,67.6,68.5,59.9,51.3,73,51,27,29.84,29.63,11,5,14,0.00
2013-2-16,90.1,81.1,71.8,63.7,53.9,39.8,68,41,23,29.80,29.63,12,8,21,0.00
2013-2-17,84.6,79.2,71.1,60.3,57.8,55.3,68,49,39,29.85,29.68,17,10,28,0.00
2013-2-18,85.5,80.1,70.0,63.5,62.2,59.4,76,55,42,29.82,29.63,17,9,27,0.00
2013-2-19,87.6,80.8,71.2,63.4,60.9,59.7,75,52,40,29.80,29.62,14,8,26,0.00
2013-2-20,88.3,82.1,72.0,65.1,59.9,53.2,70,48,39,29.76,29.57,14,8,27,0.00
2013-2-21,86.4,80.5,70.3,65.3,63.4,60.2,78,57,43,29.76,29.61,14,8,24,0.00
2013-2-22,91.0,79.6,70.0,65.5,62.6,59.3,75,57,40,29.81,29.62,16,7,21,0.00
2013-2-23,91.8,83.7,72.1,69.1,64.4,61.8,72,53,41,29.77,29.61,14,6,17,0.00
2013-2-24,82.4,78.2,75.2,66.5,65.8,64.9,72,66,57,29.70,29.62,11,7,14,0.00
2013-2-25,91.2,81.8,71.6,72.2,67.0,62.7,92,63,42,29.73,29.58,12,5,18,0.71
2013-2-26,92.1,81.3,68.9,72.0,67.8,65.2,93,66,43,29.78,29.58,13,5,20,0.00
2013-2-27,86.9,81.8,73.8,66.7,65.1,62.6,77,58,46,29.76,29.61,14,8,24,0.00
2013-2-28,90.3,83.7,72.0,65.4,62.5,60.9,71,50,40,29.78,29.59,13,7,18,0.00
2013-3-1,87.3,76.0,69.3,67.7,65.8,64.2,85,71,50,29.80,29.62,16,9,24,0.02
2013-3-2,81.9,73.7,69.4,64.4,61.7,58.2,84,67,50,29.85,29.69,17,9,30,0.00
2013-3-3,75.6,71.9,67.1,61.5,57.9,56.0,74,62,54,29.91,29.79,24,13,34,0.01
2013-3-4,81.7,75.0,67.1,62.3,60.2,58.1,73,61,49,29.92,29.70,17,11,28,0.00
2013-3-5,81.9,75.2,72.5,66.5,65.8,65.1,79,73,58,29.84,29.69,14,9,22,0.00
2013-3-6,84.7,77.2,72.0,68.6,66.6,65.4,81,71,53,29.85,29.70,14,8,21,0.00
2013-3-7,86.5,80.0,73.0,67.1,65.8,64.5,79,63,50,29.82,29.68,16,10,27,0.00
2013-3-8,87.1,79.9,72.9,67.2,66.0,64.1,78,64,50,29.81,29.65,17,10,25,0.00
2013-3-9,88.3,81.7,73.2,65.9,64.4,62.8,77,57,44,29.81,29.64,21,9,28,0.00
2013-3-10,91.9,85.7,75.7,66.9,65.2,64.2,71,51,42,29.74,29.58,14,7,21,0.00
2013-3-11,75.7,75.7,75.7,65.7,65.7,65.7,71,71,71,29.73,29.73,5,5,10,0.00
2013-3-12,75.7,75.7,75.7,65.7,65.7,65.7,71,71,71,29.73,29.73,5,5,10,0.00
2013-3-13,75.7,75.1,70.9,65.7,61.8,12.9,71,67,9,29.82,29.73,20,6,24,0.00
2013-3-14,82.8,76.3,70.0,62.6,60.6,56.1,75,59,48,29.85,29.71,18,10,27,0.00
2013-3-15,82.0,78.3,71.4,63.3,60.8,58.0,69,55,48,29.85,29.67,20,11,29,0.00
2013-3-16,89.1,79.2,69.8,60.8,58.6,54.1,70,51,38,29.83,29.60,15,8,24,0.00
2013-3-17,94.3,84.5,69.8,69.5,63.3,58.4,70,51,33,29.82,29.62,12,5,17,0.00
2013-3-18,92.3,85.6,74.1,68.5,63.8,61.5,70,49,39,29.85,29.67,7,4,10,0.00
2013-3-19,95.4,83.9,73.8,72.3,67.2,62.5,84,59,37,29.81,29.61,11,4,17,0.00
2013-3-20,95.0,84.7,68.7,70.6,63.2,59.2,78,51,33,29.83,29.59,11,4,17,0.00
2013-3-21,94.1,83.8,70.5,71.6,67.0,62.5,86,59,36,29.80,29.58,12,5,17,0.24
2013-3-22,90.9,82.3,68.0,73.2,67.4,58.7,90,64,38,29.82,29.66,9,4,14,0.00
2013-3-23,93.2,86.1,71.8,71.9,66.5,63.3,82,54,40,29.84,29.62,9,4,15,0.00
2013-3-24,92.7,86.2,75.7,72.5,68.8,66.2,85,57,45,29.79,29.56,10,4,14,0.00
2013-3-25,92.8,83.7,69.1,71.7,68.5,63.7,84,62,46,29.75,29.56,9,3,14,0.00
2013-3-26,91.2,80.9,72.7,65.4,62.4,60.2,74,55,36,29.83,29.64,20,8,25,0.00
2013-3-27,86.4,80.0,72.0,63.4,59.6,55.4,71,51,36,29.86,29.70,18,10,34,0.00
2013-3-28,84.0,75.9,70.5,63.8,61.8,60.4,75,63,48,29.84,29.78,20,11,30,0.00
2013-3-29,84.0,77.3,70.3,64.5,60.1,53.9,75,56,43,29.86,29.73,21,10,29,0.00
2013-3-30,91.2,82.8,71.6,65.3,60.8,57.9,72,49,36,29.84,29.66,14,9,22,0.00
2013-3-31,92.7,83.4,74.5,67.8,66.6,64.6,77,58,43,29.76,29.61,15,8,23,0.00
2013-4-15,75.7,75.5,75.2,72.9,72.2,70.4,91,90,85,29.79,29.78,2,1,4,0.00
2013-4-17,75.0,74.6,73.8,65.6,65.3,65.0,75,73,72,29.79,29.76,9,6,13,0.00
2013-5-7,74.7,74.1,73.4,61.2,60.7,58.9,64,63,62,29.89,29.85,5,3,9,0.00
2013-5-9,90.7,90.7,90.7,61.5,61.5,61.5,38,38,38,29.76,29.76,4,4,5,0.00
2013-5-13,88.2,79.1,73.8,68.2,66.1,63.4,77,65,47,29.84,29.67,14,8,19,0.00
2013-5-14,85.3,78.7,73.0,65.4,63.7,62.0,72,60,50,29.82,29.71,15,8,24,4.34
2013-5-15,89.2,82.6,76.5,62.5,60.0,57.1,62,47,40,29.82,29.69,16,9,21,0.00
2013-5-17,88.2,79.7,74.1,65.6,63.6,61.0,70,59,45,29.81,29.74,14,7,22,0.00
2013-5-18,89.1,80.3,74.5,73.1,68.7,65.2,84,69,50,29.82,29.69,8,3,12,0.00
2013-5-19,91.9,84.3,73.9,73.2,68.8,63.9,87,62,42,29.83,29.62,9,3,12,0.00
2013-5-20,92.7,83.2,75.7,71.1,66.6,63.4,85,59,43,29.79,29.62,15,6,23,0.00
2013-5-21,90.1,78.4,72.0,76.0,70.8,64.6,94,79,43,29.79,29.66,9,3,17,0.66
2013-5-22,83.7,78.0,72.0,73.7,71.3,69.5,92,80,71,29.80,29.69,7,3,11,0.28
2013-5-23,86.0,78.0,68.4,72.7,70.5,67.5,97,79,56,29.81,29.69,5,2,9,0.00
2013-5-24,87.3,78.9,70.5,73.8,71.0,68.7,94,78,60,29.84,29.72,8,3,11,0.90
2013-5-25,86.0,77.5,71.4,73.3,70.4,67.7,91,79,56,29.85,29.73,7,2,11,0.01
2013-5-26,81.7,76.8,72.9,74.4,72.5,70.3,94,87,78,29.85,29.71,6,2,10,0.00
2013-5-27,91.2,80.6,73.4,72.6,68.7,65.3,87,68,45,29.83,29.70,10,3,12,0.00
2013-5-28,92.3,82.4,73.6,72.3,68.7,64.6,91,65,42,29.79,29.64,11,6,17,0.00
2013-5-29,87.3,79.2,69.4,73.1,70.4,67.7,95,76,60,29.81,29.68,10,3,13,1.93
2013-5-30,82.0,75.6,69.3,72.5,69.8,66.7,94,83,70,29.85,29.70,6,2,8,0.44
2013-5-31,86.5,79.8,72.0,73.7,69.1,66.1,93,71,51,29.83,29.70,10,4,18,0.09
2013-6-1,83.8,77.1,70.9,73.5,70.9,67.5,93,82,62,29.80,29.75,8,4,13,0.12
2013-6-2,85.3,77.0,72.7,72.1,70.2,68.2,90,80,61,29.80,29.71,4,2,6,0.00
2013-6-3,88.2,80.4,69.8,74.5,72.1,68.0,94,77,62,29.78,29.65,7,3,11,0.00
2013-6-4,87.6,79.1,70.5,75.5,71.4,68.4,93,79,62,29.82,29.66,12,3,18,0.33
2013-6-5,86.0,77.4,68.7,73.8,70.6,66.0,92,80,66,29.85,29.68,8,3,11,0.07
2013-6-6,90.5,80.9,71.2,73.9,69.7,66.2,95,71,46,29.78,29.63,14,5,18,0.91
2013-6-7,87.8,78.3,65.8,74.6,69.9,64.4,97,77,59,29.81,29.63,10,3,14,0.00
2013-6-8,88.7,81.4,74.7,70.7,68.0,66.0,87,65,50,29.75,29.65,12,7,21,0.00
2013-6-9,91.8,81.3,74.7,74.1,70.2,65.2,91,71,44,29.78,29.63,10,4,17,0.00
2013-6-10,89.6,78.7,71.1,73.3,69.2,66.3,91,75,47,29.80,29.66,8,2,12,0.15
2013-6-11,89.8,81.9,68.7,74.9,69.0,62.3,92,67,42,29.82,29.68,11,4,14,0.04
2013-6-12,86.5,79.4,73.8,72.5,68.6,65.9,90,70,54,29.82,29.72,11,6,17,0.00
2013-6-13,84.4,77.0,71.6,74.9,71.4,69.1,95,84,65,29.79,29.70,9,3,12,0.24
2013-6-14,87.8,76.0,68.4,74.0,70.7,66.9,95,85,51,29.81,29.63,10,3,14,0.75
2013-6-15,86.5,80.1,75.2,72.4,69.6,67.4,91,72,55,29.78,29.69,8,3,11,0.00
2013-6-16,89.1,81.7,69.1,75.1,69.4,65.1,91,68,54,29.78,29.62,8,4,12,0.11
2013-6-17,91.2,80.5,74.1,74.2,71.6,67.0,93,76,52,29.74,29.61,10,3,16,0.06
2013-6-18,87.8,78.4,70.2,74.6,71.7,68.8,98,81,56,29.82,29.62,10,3,15,1.81
2013-6-19,87.4,77.8,70.0,73.5,70.6,67.2,92,80,61,29.79,29.64,8,3,12,0.68
2013-6-20,84.4,77.1,69.4,71.3,68.5,66.2,90,76,56,29.78,29.63,11,5,17,0.01
2013-6-21,81.0,77.7,73.0,68.9,67.5,65.7,82,71,63,29.77,29.75,11,6,17,0.00
2013-6-23,85.3,79.3,73.8,66.0,64.5,61.9,75,61,50,29.83,29.67,10,5,14,0.00
2013-6-24,87.4,78.7,70.2,68.3,66.7,63.7,89,68,50,29.86,29.71,11,5,15,0.03
2013-6-25,84.2,77.3,70.5,73.9,68.9,63.1,92,76,63,29.82,29.75,18,5,24,0.14
2013-6-26,91.6,83.4,73.6,74.8,69.3,65.6,91,64,44,29.80,29.66,9,5,14,0.01
2013-6-27,86.0,78.9,73.2,69.8,68.3,66.8,83,70,55,29.83,29.69,12,6,17,0.00
2013-6-28,73.2,73.2,73.2,67.7,67.7,67.7,83,83,83,29.80,29.74,10,5,17,0.00
2013-6-29,73.2,73.2,73.2,67.7,67.7,67.7,83,83,83,29.76,29.76,4,4,7,0.00
2013-6-30,82.9,75.8,70.7,71.9,68.8,66.7,92,80,60,29.86,29.68,11,3,17,0.31
2013-7-1,87.4,78.9,69.1,73.3,69.8,67.9,96,75,57,29.84,29.72,10,3,14,0.03
2013-7-2,85.8,75.7,66.2,74.6,69.5,64.4,95,82,62,29.87,29.73,9,2,13,0.30
2013-7-3,87.4,83.3,70.2,74.0,71.4,67.4,91,68,59,29.84,29.68,10,4,15,0.00
2013-7-4,87.4,80.2,71.1,73.7,70.2,66.5,93,73,51,29.86,29.72,8,3,12,0.12
2013-7-5,90.1,82.9,76.3,73.0,67.9,63.1,85,62,44,29.80,29.65,8,4,17,0.00
2013-7-6,85.1,75.9,71.8,73.6,70.2,67.7,92,83,67,29.78,29.63,9,3,11,0.05
2013-7-7,76.1,75.0,73.2,72.3,70.1,66.1,88,85,79,29.78,29.73,5,2,9,0.00
2013-7-8,88.3,79.6,72.7,72.5,67.2,64.2,86,67,46,29.83,29.71,12,4,15,0.00
2013-7-9,90.5,83.7,76.1,74.5,68.8,64.6,81,62,43,29.83,29.68,11,5,21,0.00
2013-7-11,79.2,75.2,71.4,69.0,67.6,66.2,87,78,66,29.84,29.72,7,3,11,0.00
2013-7-12,86.9,77.1,72.0,72.6,70.1,66.9,93,80,60,29.84,29.70,8,2,12,0.03
2013-7-13,88.3,80.4,71.6,74.9,70.9,66.8,88,74,56,29.83,29.65,9,3,14,0.00
2013-7-14,89.6,81.8,73.8,73.1,67.9,63.7,84,64,45,29.76,29.60,11,4,15,0.00
2013-7-15,92.8,83.3,73.8,72.8,65.4,62.7,72,56,40,29.75,29.57,12,6,16,0.00
2013-7-16,83.7,78.6,73.8,67.1,65.7,64.5,74,65,55,29.75,29.72,14,8,26,0.00
2013-7-18,76.1,75.6,74.3,72.4,72.0,71.5,91,89,87,29.83,29.77,2,1,4,0.00
2013-7-19,81.5,77.4,73.2,71.6,68.0,65.3,92,73,62,29.79,29.73,11,5,19,0.00
2013-7-20,91.2,81.2,73.6,73.7,70.4,64.6,92,72,42,29.79,29.64,9,3,13,0.01
2013-7-21,85.3,80.9,72.7,72.9,70.4,67.1,92,71,60,29.81,29.65,11,4,14,0.08
2013-7-22,89.6,82.2,72.0,73.1,68.3,64.7,83,64,45,29.81,29.71,9,5,13,0.00
2013-7-23,90.5,79.4,72.9,72.0,68.1,64.9,91,70,45,29.80,29.67,12,5,21,0.02
2013-7-24,81.3,78.1,75.9,68.2,67.5,67.0,75,70,63,29.72,29.62,10,5,17,0.00
2013-7-25,84.7,78.6,73.8,75.0,71.0,67.2,93,78,58,29.83,29.68,13,5,20,0.00
2013-7-26,88.2,80.3,74.3,66.9,64.9,59.8,76,61,39,29.82,29.70,18,9,29,0.00
2013-7-27,85.6,77.2,70.3,65.4,64.0,60.0,83,65,47,29.79,29.71,16,8,23,0.07
2013-7-28,85.1,78.0,70.0,73.7,70.0,65.6,92,77,55,29.86,29.69,11,4,15,0.25
2013-7-29,82.4,78.0,72.7,71.3,67.2,62.1,90,70,58,29.86,29.73,16,6,22,0.02
2013-7-30,85.1,78.1,72.1,71.6,67.5,64.1,90,71,55,29.87,29.76,11,5,18,0.00
2013-7-31,85.6,77.6,71.6,72.3,67.9,64.6,93,74,51,29.86,29.69,12,4,20,0.21
2013-8-1,84.9,78.1,71.6,68.8,66.1,64.2,81,67,53,29.82,29.72,11,6,17,0.02
2013-8-4,82.9,77.9,71.4,72.4,69.5,63.7,86,76,53,29.77,29.66,8,3,11,0.01
2013-8-5,89.8,80.6,74.5,74.4,67.4,63.8,78,65,44,29.81,29.65,9,5,15,0.00
2013-8-6,90.9,83.6,69.6,67.5,63.6,59.8,93,52,39,29.85,29.66,15,6,23,3.68
2013-8-7,90.1,81.9,72.9,69.3,63.2,59.0,76,55,37,29.80,29.65,12,7,21,0.00
2013-8-8,92.8,80.8,69.4,70.3,65.3,60.7,88,62,38,29.80,29.60,11,4,17,0.00
2013-8-9,89.2,79.6,69.3,72.8,68.0,63.5,92,70,44,29.80,29.67,11,3,14,0.63
2013-8-10,92.5,80.8,74.3,72.1,67.1,63.6,86,65,41,29.78,29.64,10,4,14,0.00
2013-8-11,87.4,80.2,72.7,72.3,70.1,66.3,91,72,54,29.84,29.68,9,4,14,0.00
2013-8-12,86.9,81.0,73.0,71.6,70.0,68.0,90,70,58,29.77,29.66,10,4,15,0.04
2013-8-13,87.3,80.2,72.9,72.9,70.9,67.3,91,75,53,29.79,29.62,10,4,15,0.01
2013-8-14,88.9,83.0,72.7,74.4,72.2,68.6,87,71,56,29.75,29.57,11,4,14,0.00
2013-8-15,89.1,82.8,75.7,74.6,71.3,66.4,89,69,52,29.73,29.62,10,5,16,0.00
2013-8-16,90.5,81.8,73.0,73.3,69.0,64.9,88,67,43,29.80,29.65,11,5,15,0.30
2013-8-17,83.8,76.1,68.5,72.6,69.6,66.9,95,81,63,29.85,29.71,8,3,11,0.04
2013-8-18,92.8,83.7,72.0,74.2,68.8,65.4,92,63,43,29.82,29.65,11,5,18,0.02
2013-8-19,90.0,82.7,70.0,75.1,69.1,64.4,89,65,43,29.78,29.62,9,5,13,0.02
2013-8-20,91.6,82.5,72.3,75.4,68.7,63.0,90,65,40,29.77,29.62,10,4,12,5.25
2013-8-21,87.6,79.0,73.2,72.3,68.4,63.6,90,71,50,29.80,29.64,14,4,21,0.00
2013-8-22,91.2,82.2,70.5,72.1,67.7,65.3,92,63,45,29.73,29.58,11,6,18,0.03
2013-8-23,88.7,79.0,66.4,71.8,69.1,65.2,96,73,52,29.78,29.59,8,2,10,0.07
2013-8-24,86.9,79.5,70.7,73.8,70.1,65.4,93,74,59,29.80,29.67,8,3,11,0.63
2013-8-25,81.9,78.4,72.0,68.5,67.2,64.8,81,69,61,29.83,29.71,11,5,14,0.00
2013-8-26,88.0,79.0,72.0,73.1,69.0,62.0,91,73,51,29.83,29.67,10,3,17,0.55
2013-8-27,83.5,76.4,69.3,73.7,68.6,65.1,93,78,60,29.82,29.68,11,4,19,0.53
2013-8-28,85.3,77.4,67.1,73.1,68.7,65.2,95,76,52,29.84,29.66,9,2,11,0.01
2013-8-29,87.4,80.1,72.3,70.4,66.9,63.7,86,65,50,29.80,29.69,11,4,16,0.00
2013-8-30,85.5,78.2,72.3,73.3,70.3,65.4,92,77,64,29.82,29.70,9,2,11,0.00
2013-8-31,91.2,83.4,74.7,68.7,66.8,64.1,81,59,42,29.79,29.68,8,3,11,0.00
2013-9-11,83.5,75.0,69.8,72.5,69.9,67.7,94,85,65,29.85,29.74,6,2,9,0.23
2013-9-12,88.9,81.6,72.7,71.9,69.4,63.6,88,68,44,29.80,29.65,7,3,11,0.00
2013-9-13,87.3,78.3,71.1,73.6,71.0,68.6,96,80,62,29.72,29.59,7,2,11,1.24
2013-9-14,87.8,80.3,70.9,74.0,71.3,67.7,92,75,60,29.76,29.59,9,3,13,0.21
2013-9-15,87.8,84.5,74.5,73.8,71.2,66.6,93,65,53,29.76,29.59,8,4,14,0.09
2013-9-16,87.6,79.5,71.2,74.4,70.9,67.8,93,76,60,29.78,29.59,7,3,12,0.26
2013-9-17,85.3,76.6,72.3,73.1,70.5,67.5,93,82,61,29.79,29.63,6,1,9,0.20
2013-9-18,86.2,78.1,71.2,74.0,71.5,68.8,94,81,62,29.85,29.66,5,2,13,0.80
2013-9-19,82.2,73.4,69.4,71.7,69.2,66.3,92,87,70,29.86,29.71,7,2,14,0.01
2013-9-20,88.0,83.7,76.8,74.7,72.9,71.7,85,70,63,29.79,29.70,4,2,8,0.00
2013-9-21,85.3,80.2,74.8,74.5,72.6,70.3,93,78,68,29.77,29.63,5,3,11,0.02
2013-9-22,76.1,72.1,70.3,71.3,70.0,68.3,98,93,79,29.84,29.62,10,2,16,0.28
2013-9-23,87.4,82.5,71.1,74.0,71.3,67.9,93,70,54,29.80,29.65,6,2,10,0.01
2013-9-24,92.7,82.3,74.1,75.8,72.2,66.4,93,74,44,29.74,29.59,8,3,12,0.22
2013-9-25,82.9,78.2,72.0,72.6,66.9,61.3,93,69,54,29.76,29.57,14,3,17,0.00
2013-9-26,88.3,81.1,68.9,73.9,70.0,66.4,92,70,50,29.81,29.63,9,3,14,1.15
2013-9-27,88.3,80.5,72.3,72.6,68.3,63.5,83,67,50,29.79,29.64,8,3,14,0.00
2013-9-28,82.8,77.9,73.4,73.2,70.8,66.8,92,79,69,29.81,29.72,5,2,9,0.01
2013-9-29,88.0,80.6,70.5,73.4,70.4,66.3,93,72,55,29.80,29.64,9,2,14,0.74
2013-9-30,87.8,80.9,71.2,72.8,69.9,65.7,93,71,52,29.82,29.66,6,2,10,1.38
2013-10-1,85.6,78.2,69.8,73.4,70.0,66.3,94,77,53,29.78,29.67,7,2,13,0.61
2013-10-2,85.6,80.0,72.3,73.7,71.2,68.3,93,76,60,29.75,29.64,5,2,10,0.10
2013-10-3,84.6,77.0,68.0,73.1,70.2,66.8,96,80,59,29.79,29.66,8,3,13,0.00
2013-10-4,77.5,74.3,68.9,71.6,69.7,67.1,94,86,79,29.82,29.72,4,2,6,0.23
2013-10-5,86.4,80.7,73.0,74.0,71.8,68.4,96,75,63,29.81,29.62,5,2,9,0.07
2013-10-6,86.9,80.1,71.4,74.0,71.5,69.0,92,76,63,29.81,29.68,4,2,8,0.13
2013-10-7,92.7,82.1,72.7,75.2,69.4,66.1,92,68,43,29.82,29.64,13,4,19,0.15
2013-10-8,88.2,82.5,73.4,72.8,68.4,66.2,89,64,50,29.78,29.66,10,4,14,0.00
2013-10-9,91.2,83.2,74.7,70.3,66.1,62.7,81,58,40,29.80,29.61,12,5,17,0.00
2013-10-10,89.1,81.5,73.9,73.7,69.8,65.9,90,69,50,29.79,29.63,6,2,11,0.01
2013-10-11,91.2,77.9,70.3,73.2,68.5,64.4,94,75,43,29.78,29.64,11,3,17,0.76
2013-10-12,87.3,79.1,72.9,73.3,69.7,64.3,93,75,48,29.78,29.66,9,3,14,0.23
2013-10-13,87.3,80.3,75.4,68.3,65.8,63.6,75,62,49,29.76,29.63,10,5,14,0.00
2013-10-14,86.5,81.6,73.6,72.3,67.7,62.5,93,63,48,29.77,29.61,8,3,13,0.00
2013-10-15,82.8,76.9,72.0,72.5,70.4,67.7,93,81,68,29.84,29.70,8,2,11,0.05
2013-10-16,84.6,75.3,68.4,72.5,69.6,66.3,98,84,63,29.87,29.67,8,2,12,1.08
2013-10-17,86.4,79.3,67.6,71.9,69.6,66.5,96,73,54,29.87,29.64,7,2,11,0.02
2013-10-18,89.1,79.9,69.6,74.5,69.0,65.4,95,71,49,29.81,29.67,11,4,14,0.00
2013-10-19,85.6,80.2,74.3,72.3,70.2,67.4,88,72,62,29.80,29.65,7,3,9,0.06
2013-10-20,87.8,79.2,69.8,73.7,69.6,65.4,92,74,49,29.84,29.63,8,3,11,0.60
2013-10-21,91.0,80.3,69.4,71.9,68.8,65.2,96,71,45,29.85,29.63,8,2,11,0.35
2013-10-22,89.6,80.3,71.1,72.7,69.2,65.9,94,71,48,29.79,29.64,6,2,8,0.60
2013-10-23,85.5,80.8,72.5,72.8,69.8,67.0,83,70,63,29.76,29.63,5,2,9,0.00
2013-10-24,82.0,74.4,68.0,72.9,71.1,67.4,99,90,73,29.80,29.70,5,1,8,0.23
2013-10-25,88.9,82.6,72.7,74.4,69.8,67.1,92,66,50,29.79,29.62,10,4,15,0.00
2013-10-26,85.5,75.4,70.2,72.0,69.7,68.5,96,84,62,29.85,29.71,6,1,8,2.44
2013-10-27,85.1,79.4,71.1,73.3,70.9,68.9,97,76,61,29.83,29.63,5,3,11,0.00
2013-10-28,86.4,78.6,68.9,75.4,72.0,67.7,97,81,58,29.80,29.67,7,2,10,1.70
2013-10-29,88.9,78.6,72.3,74.0,69.2,65.8,94,75,49,29.80,29.70,11,4,14,0.08
2013-10-30,86.0,81.0,73.8,74.0,68.3,65.4,91,66,52,29.79,29.65,9,4,11,0.00
2013-10-31,87.4,79.4,68.0,74.8,71.5,66.1,94,78,62,29.82,29.62,9,3,14,0.04
2013-11-1,86.9,79.3,66.0,73.0,69.4,64.5,95,73,57,29.83,29.63,7,3,12,0.47
2013-11-2,84.0,79.6,72.3,70.6,69.3,68.3,89,72,62,29.87,29.68,6,3,9,0.00
2013-11-3,83.3,77.1,69.8,70.4,68.9,67.2,93,76,63,29.85,29.70,5,3,11,0.00
2013-11-4,85.6,80.7,70.0,72.1,69.3,66.3,91,69,61,29.84,29.67,7,3,11,0.00
2013-11-5,87.8,80.4,73.8,71.3,66.7,60.4,85,65,40,29.77,29.63,8,3,11,0.00
2013-11-6,85.3,80.7,72.9,72.7,70.5,65.9,92,72,54,29.82,29.64,8,3,13,0.01
2013-11-7,86.4,80.6,72.3,73.7,71.7,68.6,92,75,62,29.79,29.63,6,3,11,0.02
2013-11-8,79.5,75.8,73.0,72.4,71.3,69.9,92,86,78,29.70,29.61,3,1,6,0.05
2013-11-9,84.7,77.8,69.6,72.1,70.0,68.4,96,78,63,29.80,29.62,7,2,14,0.40
2013-11-10,88.9,79.4,74.1,72.0,68.7,66.2,83,71,49,29.78,29.64,11,6,21,0.01
2013-11-11,85.8,79.5,72.5,70.9,67.4,65.2,85,67,54,29.78,29.61,12,5,17,1.65
2013-11-12,82.6,78.5,72.5,68.9,67.1,65.2,79,68,61,29.73,29.60,11,6,16,0.00
2013-11-13,90.7,82.0,74.5,67.7,66.6,65.3,76,61,46,29.72,29.56,11,7,15,0.00
2013-11-14,87.4,80.1,68.7,73.2,69.3,63.7,94,71,58,29.77,29.60,6,2,11,0.05
2013-11-15,89.8,79.7,71.1,75.0,69.3,66.0,92,72,47,29.75,29.60,11,4,17,0.73
2013-11-16,85.1,78.7,73.8,69.9,68.2,67.0,80,70,58,29.77,29.61,14,6,18,0.00
2013-11-17,90.5,85.3,74.8,73.0,66.7,62.9,92,56,41,29.77,29.56,10,4,15,0.00
2013-11-18,88.9,81.0,72.3,68.5,66.6,64.4,79,63,46,29.77,29.59,13,7,20,0.00
2013-11-19,76.8,74.9,72.5,68.4,63.5,62.1,83,68,61,29.74,29.72,12,7,21,0.00
2013-11-20,86.4,82.2,73.8,71.7,68.5,62.5,90,64,54,29.79,29.66,9,3,16,0.00
2013-11-21,85.8,81.2,68.7,72.6,68.7,64.2,91,66,51,29.84,29.67,8,4,15,0.00
2013-11-22,86.7,82.2,73.0,73.3,69.0,63.7,90,65,50,29.79,29.63,7,3,11,0.00
2013-11-23,88.3,80.7,74.1,74.0,67.8,61.5,91,67,41,29.76,29.63,7,3,11,0.05
2013-11-24,89.4,81.4,75.2,73.1,67.2,63.4,83,63,43,29.77,29.64,12,4,17,0.01
2013-11-25,89.2,78.7,71.4,73.5,68.6,63.8,96,73,44,29.79,29.63,11,4,15,0.73
2013-11-26,85.1,81.2,75.6,72.8,71.3,70.1,85,73,64,29.77,29.62,7,3,11,0.00
2013-11-27,75.6,75.6,75.6,70.7,70.7,70.7,85,85,85,29.77,29.77,0,0,2,0.00
2013-11-28,75.6,73.8,70.3,70.7,67.6,62.3,85,81,72,29.80,29.71,18,4,28,0.03
2013-11-29,84.6,79.0,72.3,66.6,63.9,61.3,72,60,51,29.82,29.66,14,6,21,0.00
2013-11-30,83.8,77.9,71.6,66.1,63.5,60.8,72,62,51,29.80,29.66,14,6,21,0.00
2013-12-1,85.5,79.5,72.1,65.4,62.2,59.2,72,56,48,29.79,29.65,11,6,21,0.00
2013-12-2,88.2,81.1,71.4,70.5,63.3,54.1,87,57,32,29.81,29.62,11,4,17,0.00
2013-12-3,84.4,78.9,72.1,71.3,69.0,65.2,91,72,55,29.84,29.69,6,2,9,0.01
2013-12-4,88.3,83.7,74.3,64.4,62.9,61.3,70,50,43,29.81,29.65,12,6,24,0.01
2013-12-5,90.1,82.0,73.9,70.7,63.3,58.4,84,55,40,29.81,29.64,13,5,17,0.01
2013-12-6,89.8,80.8,71.2,71.1,66.4,62.6,88,64,42,29.78,29.63,11,4,19,0.00
2013-12-7,90.1,86.4,75.7,71.9,64.3,62.0,87,49,40,29.76,29.62,10,4,14,0.00
2013-12-8,86.7,79.9,72.3,64.8,61.6,58.3,71,55,43,29.81,29.67,14,7,19,0.00
2013-12-9,88.9,82.1,71.2,62.9,61.4,60.0,69,51,39,29.83,29.64,11,5,16,0.00
2013-12-10,84.9,80.7,74.3,70.0,60.6,56.7,81,52,42,29.80,29.73,10,5,14,0.00
2013-12-11,88.7,82.4,74.1,68.9,65.0,62.0,76,57,45,29.80,29.62,14,5,17,0.00
2013-12-12,89.6,78.5,72.1,68.9,66.5,64.8,86,68,45,29.79,29.66,12,6,23,0.03
2013-12-13,84.7,78.1,70.9,63.0,60.4,55.4,70,56,37,29.73,29.62,19,7,30,0.00
2013-12-14,77.4,74.6,72.0,66.5,65.3,61.9,76,73,67,29.74,29.64,9,5,14,0.00
2013-12-15,85.5,78.3,73.0,67.7,66.2,63.8,82,67,52,29.74,29.66,11,6,18,0.07
2013-12-16,82.6,80.8,77.2,66.6,65.9,64.9,70,61,57,29.77,29.72,10,5,18,0.00
2013-12-17,83.5,78.4,71.4,67.0,64.4,59.8,72,63,55,29.79,29.63,13,7,24,0.01
2013-12-18,81.1,74.6,71.1,64.7,62.1,59.1,77,65,56,29.83,29.68,14,7,26,0.00
2013-12-19,84.9,81.0,71.8,64.2,62.3,60.1,69,53,47,29.78,29.61,13,7,20,0.00
2013-12-20,84.4,76.5,72.7,64.8,63.2,61.5,70,64,49,29.79,29.67,12,7,20,0.00
2013-12-23,79.5,74.5,71.4,60.7,60.1,59.1,69,61,51,29.81,29.69,10,4,16,0.00
2013-12-24,86.5,79.8,70.5,61.2,58.4,55.0,70,49,40,29.83,29.66,14,7,20,0.00
2013-12-25,88.2,80.9,71.1,60.8,57.9,53.9,68,47,32,29.81,29.63,9,6,17,0.00
2013-12-26,86.7,79.1,69.8,63.2,60.6,57.0,73,55,41,29.83,29.63,11,7,17,0.00
2013-12-27,87.4,80.6,71.8,62.0,59.4,56.7,69,50,37,29.83,29.64,12,6,17,0.00
2013-12-28,89.6,83.3,73.8,64.8,62.5,59.4,73,51,39,29.74,29.57,14,6,20,0.00
2013-12-29,87.4,82.5,70.9,67.3,65.0,62.3,79,57,44,29.75,29.58,14,7,24,0.00
2013-12-30,75.6,75.6,75.6,67.1,67.1,67.1,75,75,75,29.77,29.67,17,8,24,0.00
2013-12-31,75.6,75.6,75.6,67.1,67.1,67.1,75,75,75,29.76,29.76,4,4,8,0.00
2014-1-1,75.6,75.6,75.6,67.1,67.1,67.1,75,75,75,29.76,29.76,4,4,8,0.00
2014-1-2,75.6,75.6,75.6,67.1,67.1,67.1,75,75,75,29.76,29.76,4,4,8,0.00